Location: Alpha Ridge Park
(39.3209°N, 76.9128°W)
Time: 04:20:12
(UTC-04:00)

Vanguard 2 Rocket - Pass Details

Date: 30 May 2019
Orbit: 555 x 3326 km, 32.9° (Epoch: 25 June)

Event Time Altitude Azimuth Distance (km) Brightness Sun altitude
Rises 02:40:22 0° 209° (SSW) 6,666 - -25.0°
Reaches altitude 10° 02:45:11 10° 201° (SSW) 5,918 - -24.6°
Exits shadow 02:52:29 25° 182° (S) 5,006 10.1 -24.0°
Maximum altitude 03:01:34 35° 144° (SE) 4,508 10.1 -23.2°
Drops below altitude 10° 03:17:23 10° 87° (E) 5,781 11.4 -21.6°
Sets 03:21:55 0° 80° (E) 6,508 11.9 -21.1°
